TimeIST,TemperatureF,Dew PointF,Humidity,Sea Level PressureIn,VisibilityMPH,Wind Direction,Wind SpeedMPH,Gust SpeedMPH,PrecipitationIn,Events,Conditions,WindDirDegrees,DateUTC
12:00 AM,69.8,64.4,83,29.95,2.2,Calm,Calm,-,N/A,,Mist,0,2012-10-21 18:30:00
1:00 AM,68.0,62.6,83,29.95,2.2,Calm,Calm,-,N/A,,Mist,0,2012-10-21 19:30:00
2:00 AM,66.2,62.6,88,29.92,2.2,Calm,Calm,-,N/A,,Mist,0,2012-10-21 20:30:00
3:00 AM,66.2,60.8,83,29.92,2.2,Calm,Calm,-,N/A,,Mist,0,2012-10-21 21:30:00
5:00 AM,64.4,60.8,88,29.95,1.6,Calm,Calm,-,N/A,,Mist,0,2012-10-21 23:30:00
5:30 AM,64.4,60.8,88,29.95,1.6,Variable,2.3,-,N/A,,Mist,0,2012-10-22 00:00:00
6:00 AM,64.4,60.8,88,29.95,1.2,Calm,Calm,-,N/A,,Mist,0,2012-10-22 00:30:00
7:00 AM,62.6,60.8,94,29.98,0.7,Calm,Calm,-,N/A,Fog,Fog,0,2012-10-22 01:30:00
7:30 AM,64.4,62.6,94,29.98,0.7,Calm,Calm,-,N/A,Fog,Fog,0,2012-10-22 02:00:00
8:30 AM,71.6,64.4,78,30.01,1.1,Variable,2.3,-,N/A,,Mist,0,2012-10-22 03:00:00
9:00 AM,75.2,66.2,73,30.01,1.2,Variable,2.3,-,N/A,,Haze,0,2012-10-22 03:30:00
9:30 AM,77.0,62.6,61,30.01,1.6,Variable,2.3,-,N/A,,Haze,0,2012-10-22 04:00:00
10:30 AM,82.4,62.6,51,30.01,2.5,Variable,2.3,-,N/A,,Haze,0,2012-10-22 05:00:00
11:00 AM,84.2,60.8,45,30.01,2.5,Variable,2.3,-,N/A,,Haze,0,2012-10-22 05:30:00
11:30 AM,87.8,62.6,43,30.01,2.5,West,4.6,-,N/A,,Haze,270,2012-10-22 06:00:00
12:00 PM,87.8,62.6,43,29.98,2.5,West,5.8,-,N/A,,Haze,270,2012-10-22 06:30:00
1:30 PM,87.8,57.2,35,29.95,3.1,NW,6.9,-,N/A,,Haze,320,2012-10-22 08:00:00
2:00 PM,87.8,55.4,33,29.95,3.7,WNW,8.1,-,N/A,,Unknown,300,2012-10-22 08:30:00
2:30 PM,89.6,59.0,36,29.95,3.7,NW,8.1,-,N/A,,Unknown,320,2012-10-22 09:00:00
3:00 PM,89.6,59.0,36,29.92,3.7,WNW,5.8,-,N/A,,Unknown,300,2012-10-22 09:30:00
3:30 PM,87.8,59.0,38,29.92,3.7,WNW,4.6,-,N/A,,Unknown,300,2012-10-22 10:00:00
4:00 PM,87.8,60.8,40,29.92,3.1,NW,4.6,-,N/A,,Haze,310,2012-10-22 10:30:00
4:30 PM,87.8,62.6,43,29.92,3.1,NW,3.5,-,N/A,,Haze,320,2012-10-22 11:00:00
5:00 PM,86.0,64.4,48,29.92,3.1,NW,3.5,-,N/A,,Haze,320,2012-10-22 11:30:00
5:30 PM,84.2,66.2,55,29.92,2.5,Variable,2.3,-,N/A,,Haze,0,2012-10-22 12:00:00
6:30 PM,80.6,66.2,61,29.92,1.9,Calm,Calm,-,N/A,,Haze,0,2012-10-22 13:00:00
7:00 PM,77.0,64.4,65,29.92,1.9,Calm,Calm,-,N/A,,Haze,0,2012-10-22 13:30:00
7:30 PM,73.4,64.4,73,29.95,1.9,Calm,Calm,-,N/A,,Haze,0,2012-10-22 14:00:00
8:00 PM,71.6,64.4,78,29.95,1.9,Calm,Calm,-,N/A,,Mist,0,2012-10-22 14:30:00
8:30 PM,-9999,-9999,N/A,29.95,1.6,Calm,Calm,-,N/A,,Mist,0,2012-10-22 15:00:00
9:00 PM,69.8,64.4,83,29.95,1.6,Calm,Calm,-,N/A,,Mist,0,2012-10-22 15:30:00
10:00 PM,69.8,64.4,83,29.95,1.6,Calm,Calm,-,N/A,,Mist,0,2012-10-22 16:30:00
11:00 PM,68.0,62.6,83,29.95,1.6,Calm,Calm,-,N/A,,Mist,0,2012-10-22 17:30:00